{"data":{"norad_id":69789,"epoch":"2026-09-20T00:10:09.469920Z","epoch_age_seconds":68084,"freshness":"FRESH","line1":"1 69789U 26151AC  26263.00705405 -.00000919  00000+0 -91543-4 0  9990","line2":"2 69789  51.8978 226.4651 0000605  92.7990 267.3041 14.79925634 12165","mean_motion":14.79925634,"eccentricity":6.05e-5,"inclination_deg":51.8978,"raan_deg":226.4651,"arg_perigee_deg":92.799,"mean_anomaly_deg":267.3041,"bstar":-9.1543e-5,"rev_number":1216,"period_min":97.302186469188,"perigee_km":629.13491630728,"apogee_km":629.982847509,"semimajor_km":7007.6958819081,"source":"CELESTRAK","updated_at":"2026-09-20T09:00:25.115531Z"}}